This demonstration page uses our WeatherBlox Daily Observations layout. Learn more.

Hourly Observations for March 1, 2019

Temp ( °F °C ) Dew Point ( °F °C ) Humidity (%) Winds ( mph kmh ) Pressure ( in mb ) Visibility ( mi km ) Precip ( " mm )
12:15 am 00:15 Clear 17 -8.5 11 -11.5 79 79 SSE 3 6 30.18 1022 10 16.09344 0 0
12:35 am 00:35 Clear 17 -8.5 11 -11.5 79 79 SSE 6 9 30.18 1022 10 16.09344 0 0
12:55 am 00:55 Mostly Cloudy 19 -7.5 12 -11 76 76 SE 10 17 30.12 1020 10 16.09344 0 0
1:15 am 01:15 Mostly Cloudy 18 -7.6 12 -11 77 77 SSE 10 17 30.12 1020 10 16.09344 0 0
1:35 am 01:35 Mostly Cloudy 18 -7.6 12 -11.1 76 76 S 8 13 30.12 1020 10 16.09344 0 0
1:55 am 01:55 Mostly Cloudy 19 -7.5 12 -11.1 76 76 SSW 8 13 30.15 1021 10 16.09344 0 0
2:15 am 02:15 Clear 18 -8 11 -11.7 75 75 SSW 8 13 30.15 1021 10 16.09344 0 0
2:35 am 02:35 Partly Cloudy 17 -8.5 10 -12 76 76 S 7 11 30.18 1022 10 16.09344 0 0
2:55 am 02:55 Clear 17 -8.5 10 -12.1 76 76 S 10 17 30.18 1022 10 16.09344 0 0
3:15 am 03:15 Partly Cloudy 16 -8.7 10 -12.2 76 76 S 10 17 30.18 1022 10 16.09344 0 0
3:35 am 03:35 Mostly Cloudy 16 -9 10 -12.3 77 77 S 8 13 30.18 1022 10 16.09344 0 0
3:55 am 03:55 Cloudy 16 -9 10 -12.2 78 78 SE 3 6 30.15 1021 10 16.09344 0 0
4:15 am 04:15 Mostly Cloudy 16 -9.1 10 -12.2 78 78 Calm 30.15 1021 10 16.09344 0 0
4:35 am 04:35 Mostly Cloudy 16 -9.1 10 -12 80 80 NNW 7 11 30.18 1022 10 16.09344 0 0
4:55 am 04:55 Mostly Cloudy 16 -8.9 11 -11.7 80 80 W 3 6 30.18 1022 10 16.09344 0 0
5:15 am 05:15 Partly Cloudy 16 -8.7 11 -11.7 79 79 Calm 30.18 1022 10 16.09344 0 0
5:35 am 05:35 Partly Cloudy 16 -8.9 11 -11.8 80 80 SSW 6 9 30.15 1021 10 16.09344 0 0
5:55 am 05:55 Partly Cloudy 16 -8.7 11 -11.5 80 80 S 9 15 30.15 1021 10 16.09344 0 0
6:15 am 06:15 Partly Cloudy 17 -8.3 12 -11.2 80 80 S 12 19 30.12 1020 10 16.09344 0 0
6:35 am 06:35 Mostly Cloudy 18 -7.8 12 -11 78 78 SSE 14 22 30.09 1019 10 16.09344 0 0
6:55 am 06:55 Mostly Cloudy 19 -7.5 13 -10.7 78 78 SSE 17 28 30.06 1018 10 16.09344 0 0
7:15 am 07:15 Partly Cloudy 18 -8 12 -11.2 78 78 S 10 17 30.09 1019 10 16.09344 0 0
7:35 am 07:35 Sunny 17 -8.5 11 -11.5 79 79 SSE 7 11 30.09 1019 10 16.09344 0 0
7:55 am 07:55 Sunny 17 -8.3 12 -11.3 79 79 S 8 13 30.09 1019 10 16.09344 0 0
8:15 am 08:15 Sunny 18 -7.8 12 -11 78 78 S 8 13 30.09 1019 10 16.09344 0 0
8:35 am 08:35 Sunny 19 -7.5 12 -10.9 77 77 S 7 11 30.09 1019 10 16.09344 0 0
8:55 am 08:55 Sunny 20 -6.8 13 -10.4 76 76 S 6 9 30.09 1019 10 16.09344 0 0
9:15 am 09:15 Sunny 20 -6.4 14 -10 76 76 S 9 15 30.09 1019 10 16.09344 0 0
9:35 am 09:35 Sunny 22 -5.5 15 -9.4 74 74 SSW 8 13 30.06 1018 10 16.09344 0 0
9:55 am 09:55 Sunny 24 -4.7 16 -9 72 72 SW 7 11 30.09 1019 10 16.09344 0 0
10:15 am 10:15 Sunny 24 -4.5 16 -8.7 73 73 W 7 11 30.12 1020 10 16.09344 0 0
10:35 am 10:35 Sunny 25 -4.1 17 -8.4 72 72 W 9 15 30.12 1020 10 16.09344 0 0
10:55 am 10:55 Sunny 26 -3.6 18 -7.8 73 73 NW 10 17 30.12 1020 10 16.09344 0 0
11:15 am 11:15 Mostly Cloudy 27 -2.6 19 -7.2 71 71 NW 10 17 30.15 1021 10 16.09344 0 0
11:35 am 11:35 Cloudy 29 -1.9 20 -6.5 71 71 WNW 9 15 30.12 1020 10 16.09344 0 0
11:55 am 11:55 Cloudy 30 -0.9 22 -5.5 71 71 NW 13 20 30.12 1020 10 16.09344 0 0
12:15 pm 12:15 Cloudy 32 0 25 -3.8 76 76 NNW 20 31 30.12 1020 10 16.09344 0 0
12:35 pm 12:35 Cloudy 33 0.6 26 -3.5 74 74 N 18 30 30.12 1020 10 16.09344 0 0
12:55 pm 12:55 Cloudy 33 0.6 25 -3.7 73 73 NNW 23 37 30.15 1021 10 16.09344 0 0
1:15 pm 13:15 Cloudy 32 0 24 -4.2 74 74 NNW 23 37 30.15 1021 10 16.09344 0 0
1:35 pm 13:35 Cloudy 32 -0.1 24 -4.6 72 72 N 18 30 30.15 1021 10 16.09344 0 0
1:55 pm 13:55 Mostly Cloudy 31 -0.3 23 -4.9 71 71 N 17 28 30.15 1021 10 16.09344 0 0
2:15 pm 14:15 Mostly Cloudy 31 -0.3 23 -5 71 71 NNW 15 24 30.15 1021 10 16.09344 0 0
2:35 pm 14:35 Mostly Cloudy 31 -0.7 22 -5.3 71 71 NNW 20 31 30.18 1022 10 16.09344 0 0
2:55 pm 14:55 Mostly Cloudy 31 -0.7 22 -5.5 70 70 N 15 24 30.15 1021 10 16.09344 0 0
3:15 pm 15:15 Mostly Cloudy 30 -1 22 -5.5 72 72 N 13 20 30.18 1022 10 16.09344 0 0
3:35 pm 15:35 Mostly Cloudy 30 -1.2 21 -6 70 70 N 16 26 30.18 1022 10 16.09344 0 0
3:55 pm 15:55 Cloudy 29 -1.7 21 -6.1 72 72 N 17 28 30.24 1024 10 16.09344 0 0
4:15 pm 16:15 Mostly Cloudy 30 -1 21 -6.2 68 68 N 18 30 30.18 1022 10 16.09344 0 0
4:35 pm 16:35 Mostly Cloudy 29 -1.6 20 -6.6 69 69 N 20 31 30.24 1024 10 16.09344 0 0
4:55 pm 16:55 Cloudy 29 -1.6 20 -6.9 68 68 N 21 33 30.24 1024 10 16.09344 0 0
5:15 pm 17:15 Partly Cloudy 28 -2.4 19 -7.1 70 70 N 16 26 30.24 1024 10 16.09344 0 0
5:35 pm 17:35 Partly Cloudy 27 -2.6 19 -7.3 70 70 N 12 19 30.24 1024 10 16.09344 0 0
5:55 pm 17:55 Sunny 26 -3.2 18 -7.8 71 71 N 10 17 30.27 1025 10 16.09344 0 0
6:15 pm 18:15 Sunny 25 -4 17 -8.1 73 73 NNE 8 13 30.27 1025 10 16.09344 0 0
6:35 pm 18:35 Clear 24 -4.6 17 -8.6 74 74 N 6 9 30.33 1027 10 16.09344 0 0
6:55 pm 18:55 Clear 22 -5.6 15 -9.4 75 75 N 8 13 30.33 1027 10 16.09344 0 0
7:15 pm 19:15 Clear 20 -6.4 15 -9.7 78 78 N 8 13 30.33 1027 10 16.09344 0 0
7:35 pm 19:35 Clear 19 -7.2 14 -10.1 80 80 N 3 6 30.39 1029 10 16.09344 0 0
7:55 pm 19:55 Clear 20 -6.5 15 -9.4 80 80 N 3 6 30.39 1029 10 16.09344 0 0
8:15 pm 20:15 Clear 21 -6.3 15 -9.4 79 79 Calm 30.36 1028 10 16.09344 0 0
8:35 pm 20:35 Clear 19 -7.4 14 -9.8 83 83 Calm 30.39 1029 10 16.09344 0 0
8:55 pm 20:55 Partly Cloudy 14 -10.1 10 -12.5 83 83 N 3 6 30.42 1030 10 16.09344 0 0
9:15 pm 21:15 Partly Cloudy 16 -8.8 13 -10.3 89 89 Calm 30.42 1030 10 16.09344 0 0
9:35 pm 21:35 Mostly Cloudy 14 -9.8 11 -11.8 86 86 NNE 3 6 30.45 1031 10 16.09344 0 0
9:55 pm 21:55 Mostly Cloudy 13 -10.7 9 -12.6 86 86 N 5 7 30.45 1031 10 16.09344 0 0
10:15 pm 22:15 Partly Cloudy 14 -9.9 11 -11.7 87 87 NNE 3 6 30.45 1031 10 16.09344 0 0
10:35 pm 22:35 Mostly Cloudy 17 -8.2 13 -10.3 85 85 N 5 7 30.42 1030 10 16.09344 0 0
10:55 pm 22:55 Mostly Cloudy 16 -8.8 12 -10.9 85 85 NNE 6 9 30.42 1030 10 16.09344 0 0
11:15 pm 23:15 Cloudy 18 -7.7 14 -9.8 85 85 NNW 7 11 30.45 1031 10 16.09344 0 0
11:35 pm 23:35 Cloudy 19 -7 15 -9.4 83 83 N 6 9 30.45 1031 10 16.09344 0 0
11:55 pm 23:55 Cloudy 19 -7 15 -9.5 83 83 N 7 11 30.45 1031 10 16.09344 0 0

Powered by AerisWeather